Regional Weather Roundup
Issued by NWS Charleston, SC

Current Version | Previous Version | Text Only | Print | Product List | Glossary Off
Versions: 1 2 3 4 5 6 7 8 9 10 11 12 13 14 15 16 17 18 19 20 21 22 23 24 25 26 27 28 29 30 31 32 33 34 35 36 37 38 39 40 41 42 43 44 45 46 47 48 49 50

000
ASUS42 KCHS 260927
RWRCHS

REGIONAL WEATHER ROUNDUP
NATIONAL WEATHER SERVICE CHARLESTON SC
500 AM EDT FRI MAY 26 2017

NOTE: "FAIR" INDICATES FEW OR NO CLOUDS BELOW 12,000 FEET WITH NO
SIGNIFICANT WEATHER AND/OR OBSTRUCTIONS TO VISIBILITY.

NOT ALL STATIONS ARE QUALITY CONTROLLED. USE DATA WITH CAUTION...
ESPECIALLY DEWPOINT OBSERVATIONS.

SCZ027-030-031-034>040-042>050-261000-
...SOUTHEAST SOUTH CAROLINA...

CITY           SKY/WX    TMP DP  RH WIND       PRES   REMARKS
N CHARLESTON   CLEAR     61  53  75 W6        29.94R
WATERFRONT PRK   N/A     66  57  72 VRB3      29.93R
JOHNS ISLAND   FAIR      63  55  77 CALM      29.95R
PINOPOLIS        N/A     64  57  77 SW10      29.83R
MONCKS CORNER  FAIR      57  52  82 SW3       29.95R
SUMMERVILLE    FAIR      55  54  94 SW5       29.95R
BEAUFORT MCAS  CLEAR     64  55  72 W8        29.95R
BEAUFORT ARPT  NOT AVBL
HILTON HEAD IS NOT AVBL
WALTERBORO     SUNNY     59  54  82 W6        29.96R
ALLENDALE      FAIR      57  55  94 CALM      29.95R

...SOUTHERN MIDLANDS AND PEE DEE...

CITY           SKY/WX    TMP DP  RH WIND       PRES   REMARKS
GEORGETOWN     FAIR      55  54  94 SW7       29.94R
KINGSTREE      FAIR      55  52  88 CALM      29.93R
ORANGEBURG     CLEAR     57  53  86 S3        29.94R
BARNWELL       FAIR      55  54  94 CALM      29.96R
AIKEN          FAIR      54  50  87 SW5       29.98S
MANNING        NOT AVBL
COLUMBIA       CLEAR     57  52  83 SW5       29.92R
SUMTER         CLEAR     60  52  74 W9        29.89R
FLORENCE       CLEAR     58  54  86 W5        29.91R
MYRTLE BEACH   CLEAR     64  54  69 W10       29.92R
N MYRTLE BEACH CLEAR     64  54  69 W8        29.90R

$$

GAZ063-065-086>088-099>101-113>116-118-119-134>141-150-261000-
...SOUTHEAST GEORGIA...

CITY           SKY/WX    TMP DP  RH WIND       PRES   REMARKS
SAVANNAH ARPT  CLEAR     58  52  80 W6        29.97R
HUNTER AAF     PTCLDY    58  57  99 CALM      29.94R
FORT STEWART   CLEAR     56  53  90 CALM      29.95R
STATESBORO     CLEAR     56  56 100 CALM      29.97R
SYLVANIA       SUNNY     56  56 100 CALM      29.98R
CLAXTON        FAIR     N/A N/A N/A CALM      29.98R

...CSRA...CENTRAL AND FAR SOUTHEAST GEORGIA...

CITY           SKY/WX    TMP DP  RH WIND       PRES   REMARKS
THOMSON        CLEAR     54  52  93 CALM      30.01R
AUGUSTA-BUSH   CLEAR     61  53  75 W7        29.94R
AUGUSTA-DANIEL CLEAR     65  49  56 W8        29.95R
SWAINSBORO     FAIR      54  54 100 CALM      29.98S
VIDALIA        CLEAR     57  55  94 CALM      29.99R
EASTMAN        FAIR      52  52 100 CALM      30.01R
HAZLEHURST     FAIR      58  58 100 CALM      29.99R
ALMA           CLEAR     55  53  93 CALM      29.98R
WAYCROSS       CLEAR     58  58 100 CALM      30.00R
JESUP          FAIR      52  50  93 CALM      30.00R
BAXLEY         FAIR      54  54 100 CALM      29.99R
BRUNSWICK      CLEAR     57  55  94 W5        30.00R
SAINT SIMONS   CLEAR     64  57  78 W6        29.98R

$$

SCZ027-028-034-036>038-045-046-048>050-GAZ119-141-261000-
...LAKE AND SUPPLEMENTAL COASTAL OBSERVATIONS...

STATION/POSITION TIME  TEMP    WIND        PRES    WAVE   SWELL
                       AIR SEA DIR/SP/G            HT/PER HT/PER/DIR
                 (UTC) (F)     (DEG/KT/KT) (MB)    (FT/S) (FT/S/D)
WINYAH BAY       NOT AVBL
LAKE MURRAY      0820   66     280/ 16/ 20 1012.2
ACE BASIN NERRS  0830   63     280/  1     1014.0S
FORT PULASKI     0900   67     290/  7/ 11 1014.9
SAPELO ISLAND    0800   66     240/  7     1014.0

$$

ANZ835-935-AMZ111-154-330-350-352-354-370-450-454-472-261000-
...C-MAN AND BUOY OBSERVATIONS...

STATION/POSITION TIME  TEMP    WIND        PRES    WAVE   SWELL
                       AIR SEA DIR/SP/G            HT/PER HT/PER/DIR
                 (UTC) (F)     (DEG/KT/KT) (MB)    (FT/S) (FT/S/D)
BUOY 41004       0910   74 74  280/ 16/ 19 1013.5
BUOY 41008       0850   74 76  280/ 12/ 14 1014.6R   2/ 7   2/100/ 7
FOLLY BEACH CMAN 0900   64     270/  3/  5 1014.4R
CAPERS NEARSHORE 0908   74 76  290/ 14/ 19 1013.6R
FRIPP NEARSHORE  0908   70 76  290/ 12/ 16 1013.8R


STATION/POSITION TIME  TEMP    WIND        PRES    WAVE   SWELL
                       AIR SEA DIR/SP/G            HT/PER HT/PER/DIR
                 (UTC) (F)     (DEG/KT/KT) (MB)    (FT/S) (FT/S/D)
5E ST. MARYS GA  0900      78                N/A     2/ 3
FRYING PAN BUOY  0910   74 75  260/ 21/ 25 1012.5
BUOY 41025       0850   73 78  270/ 25/ 29 1008.4R  10/ 8
CAPE LOOKOUT NC  0900   70     270/ 22/ 29 1010.2R
BUOY 41002       0850   76 76  270/ 17/ 21 1013.5R   9/ 8   3/280/ 9
BUOY 41010       0910   79 78  290/ 12/ 14 1014.5
ST AUGUSTINE FL  0900   63 75  260/  7/  8 1016.5R


$$




USA.gov is the U.S. government's official web portal to all federal, state and local government web resources and services.